Location: Unspecified
(0.0000°N, 0.0000°E)
Time: 11:54:59
(UTC+00:00)

Nadezhda 6 - Visible Passes

Search period start: 17 September 2024 00:00
Search period end: 27 September 2024 00:00
Orbit: 655 x 672 km, 97.8° (Epoch: 16 September)

Date Brightness Start Highest point End Pass type
(mag) Time Alt. Az. Time Alt. Az. Time Alt. Az.
17 Sep 5.6 05:03:46 10° N 05:08:17 76° W 05:12:48 10° SSW visible
18 Sep 8.8 04:00:07 10° ENE 04:02:10 13° ESE 04:04:13 10° SE visible
19 Sep 7.4 04:28:41 10° NE 04:32:45 34° ESE 04:36:49 10° SSE visible
20 Sep 5.6 04:58:50 10° N 05:03:21 88° W 05:07:52 10° SSW visible
21 Sep 9.0 03:55:58 10° E 03:57:13 11° ESE 03:58:29 10° ESE visible
22 Sep 7.7 04:23:53 10° NE 04:27:47 29° ESE 04:31:42 10° SSE visible
23 Sep 5.8 04:53:52 10° NNE 04:58:22 80° E 05:02:53 10° S visible
24 Sep 6.2 05:24:48 10° NNW 05:28:56 37° WNW 05:33:06 10° SW visible
25 Sep 8.0 04:19:04 10° NE 04:22:47 25° ESE 04:26:29 10° SSE visible
26 Sep 6.0 04:48:52 10° NNE 04:53:20 69° ESE 04:57:50 10° S visible
